Find Starlink 3447

NORAD ID: 51736 Int'l Des: 2022-016 Owner: SPXS Country: US Constellation: starlink operational
LEOCIRCULAR

当前视图

正在加载3D地球...

About Starlink 3447

Starlink 3447 (NORAD 51736) is a starlink constellation satellite (v1.5) launched Feb 21, 2022 by SPXS of US. It operates in LEO, CIRCULAR orbit with a mass of 297.00 kg.

关于 Starlink 3447

正在加载描述...

即将过境

Passes for default location (London). Set your location on the main map for personalized predictions.

高度历史

Loading altitude history...

两行轨道根数

1 51736U 22016Y 26167.48327079 .00001509 00000-0 11285-3 0 9990
2 51736 53.1600 235.6146 0001221 87.6801 272.4330 15.08839405238470
Epoch: Jun 16, 2026 • Age: 8 hours

当前状态

高度 553.4 km
速度 7.58 km/s
星下点 -39.58°S, 1.35°E
发射日期 Feb 21, 2022
运行时间 4.3 years
类型 internet

技术详情

分类 Payload
质量 297.00 kg
干质量 275.00 kg
总质量 297.00 kg
长度 0.20 m
直径 2.80 m
跨度 9.00 m
形状 Box + pan
制造商 SPXS
平台类型 Starlink
阶段状态 In Orbit
所有者/国家 SPXS/US

Most Searched